sat.trackr.live / text

‹ back to catalog

STARLINK-5871

NORAD 55919 · 2023-037F

PAYLOAD ACTIVE UNKNOWN

§ Identity

Operator
Country
US
Launch date
2023-03-17
Launch site
AFWTR
Launch vehicle
Mass (kg)
RCS (m²)

Purposes: comms

External: N2YO · Heavens-Above · Gunter

§ Orbital elements

Epoch: 2026-09-20T00:18:32.665248Z

Period
96.11 min
Inclination
70.0003°
Eccentricity
0.0002863
Mean motion
14.98328609 rev/d
Perigee alt
570.1 km
Apogee alt
574.1 km
Semi-major
6,950.2 km
B*
7.5905e-6
RAAN
174.5499°
Arg perigee
269.6605°
Mean anomaly
90.4226°
Rev number
19,259

§ Raw data

STARLINK-58711 55919U 23037F   26263.01287807 -.00000002  00000+0  75905-5 0  99992 55919  70.0003 174.5499 0002863 269.6605  90.4226 14.98328609192592

JSON: /api/v1/satellites/55919 · /tle

For live sub-satellite position, see the globe view (requires WebGL).

§ Visibility from observer

Set your observer location to see the next 7 days of passes ≥ 10°. The values pass through the URL so the page stays shareable.

No JS? Fill the form by hand. The geolocation button needs JavaScript.